Station Historical Data
Daily Summary for June 7, 2012 Units:  English    Metric   Both
« Previous Day
Next Day »
Daily Weekly Monthly Yearly Custom
  High: Low: Average:
Temperature: 81.0 °F 57.8 °F 69.2 °F
Dew Point: 65.3 °F 53.3 °F 57.7 °F
Humidity: 85% 44% 68%
Wind Speed: 10.0mph 0.0mph 3.3mph
Wind Gust: 12.0mph - -
Wind- - ESE
Pressure: 30.00 in 29.93 in -
Precipitation: 0.00 in    
Historical Graphs
 
 
Tabular Data for June 7, 2012
Time Temperature Dew Point Pressure Wind Wind Speed Wind Gust Humidity Rainfall Rate (Hourly) Conditions
00:00 62.8 °F 55.5 °F 29.95 in North 2.0 mph 3.0 mph 77% 0.00 in
00:05 62.6 °F 55.7 °F 29.96 in North 2.0 mph 3.0 mph 78% 0.00 in
00:10 62.6 °F 55.7 °F 29.96 in North 2.0 mph 3.0 mph 78% 0.00 in
00:15 62.6 °F 55.7 °F 29.96 in NNE 2.0 mph 4.0 mph 78% 0.00 in
00:20 62.6 °F 55.7 °F 29.96 in North 2.0 mph 4.0 mph 78% 0.00 in
00:25 62.5 °F 55.6 °F 29.96 in North 2.0 mph 4.0 mph 78% 0.00 in
00:30 62.4 °F 55.5 °F 29.96 in NNE 2.0 mph 4.0 mph 78% 0.00 in
00:35 62.3 °F 55.4 °F 29.96 in NNW 4.0 mph 4.0 mph 78% 0.00 in
00:40 62.2 °F 55.3 °F 29.96 in NNW 3.0 mph 4.0 mph 78% 0.00 in
00:45 62.1 °F 55.2 °F 29.95 in NNE 2.0 mph 4.0 mph 78% 0.00 in
00:50 62.1 °F 55.2 °F 29.96 in North 3.0 mph 3.0 mph 78% 0.00 in
00:55 62.0 °F 55.1 °F 29.95 in North 3.0 mph 4.0 mph 78% 0.00 in
01:00 61.8 °F 54.9 °F 29.95 in North 2.0 mph 3.0 mph 78% 0.00 in
01:05 61.6 °F 55.0 °F 29.95 in North 1.0 mph 3.0 mph 79% 0.00 in
01:10 61.5 °F 54.9 °F 29.95 in North 4.0 mph 4.0 mph 79% 0.00 in
01:15 61.7 °F 54.8 °F 29.95 in NNW 2.0 mph 4.0 mph 78% 0.00 in
01:20 61.8 °F 54.9 °F 29.95 in North 3.0 mph 3.0 mph 78% 0.00 in
01:25 61.7 °F 54.8 °F 29.96 in NNW 2.0 mph 3.0 mph 78% 0.00 in
01:30 61.6 °F 54.7 °F 29.95 in North 3.0 mph 3.0 mph 78% 0.00 in
01:35 61.6 °F 54.7 °F 29.95 in NE 1.0 mph 2.0 mph 78% 0.00 in
01:41 61.6 °F 54.7 °F 29.95 in NNE 2.0 mph 3.0 mph 78% 0.00 in
01:46 61.6 °F 54.7 °F 29.95 in NNE 1.0 mph 3.0 mph 78% 0.00 in
01:51 61.7 °F 54.8 °F 29.95 in NNE 2.0 mph 4.0 mph 78% 0.00 in
01:56 61.6 °F 54.7 °F 29.95 in NNE 2.0 mph 2.0 mph 78% 0.00 in
02:01 61.5 °F 54.6 °F 29.95 in NE 1.0 mph 4.0 mph 78% 0.00 in
02:06 61.3 °F 54.4 °F 29.95 in NNE 2.0 mph 3.0 mph 78% 0.00 in
02:11 61.3 °F 54.4 °F 29.94 in NNE 2.0 mph 5.0 mph 78% 0.00 in
02:16 61.3 °F 54.4 °F 29.94 in NNE 1.0 mph 5.0 mph 78% 0.00 in
02:21 61.3 °F 54.4 °F 29.95 in North 3.0 mph 3.0 mph 78% 0.00 in
02:26 61.3 °F 54.4 °F 29.95 in NNE 3.0 mph 4.0 mph 78% 0.00 in
02:31 61.2 °F 54.3 °F 29.95 in NNE 2.0 mph 4.0 mph 78% 0.00 in
02:36 61.1 °F 54.2 °F 29.95 in NNE 4.0 mph 5.0 mph 78% 0.00 in
02:41 61.2 °F 54.3 °F 29.95 in North 2.0 mph 3.0 mph 78% 0.00 in
02:46 61.1 °F 54.2 °F 29.94 in NNW 2.0 mph 4.0 mph 78% 0.00 in
02:51 60.9 °F 54.3 °F 29.95 in NNE 2.0 mph 3.0 mph 79% 0.00 in
02:56 60.9 °F 54.3 °F 29.95 in NE 2.0 mph 5.0 mph 79% 0.00 in
03:01 60.7 °F 54.2 °F 29.95 in NE 3.0 mph 4.0 mph 79% 0.00 in
03:06 60.7 °F 54.2 °F 29.95 in ENE 2.0 mph 4.0 mph 79% 0.00 in
03:11 60.5 °F 54.3 °F 29.95 in North 2.0 mph 4.0 mph 80% 0.00 in
03:16 60.5 °F 54.0 °F 29.94 in NNE 2.0 mph 4.0 mph 79% 0.00 in
03:21 60.3 °F 54.1 °F 29.95 in NNE 2.0 mph 3.0 mph 80% 0.00 in
03:26 60.1 °F 53.9 °F 29.94 in North 2.0 mph 2.0 mph 80% 0.00 in
03:31 60.0 °F 54.2 °F 29.95 in NNE 1.0 mph 3.0 mph 81% 0.00 in
03:36 59.7 °F 53.9 °F 29.94 in NNE 2.0 mph 2.0 mph 81% 0.00 in
03:41 59.5 °F 54.0 °F 29.94 in NNE 2.0 mph 2.0 mph 82% 0.00 in
03:46 59.3 °F 53.8 °F 29.94 in North 2.0 mph 4.0 mph 82% 0.00 in
03:52 59.2 °F 53.7 °F 29.94 in North 2.0 mph 2.0 mph 82% 0.00 in
03:57 59.1 °F 54.0 °F 29.94 in NE 3.0 mph 4.0 mph 83% 0.00 in
04:02 59.1 °F 54.0 °F 29.94 in NNE 3.0 mph 4.0 mph 83% 0.00 in
04:07 59.1 °F 54.0 °F 29.94 in NNE 1.0 mph 3.0 mph 83% 0.00 in
04:12 59.0 °F 53.8 °F 29.94 in NNE 4.0 mph 4.0 mph 83% 0.00 in
04:17 59.0 °F 53.8 °F 29.94 in NE 2.0 mph 4.0 mph 83% 0.00 in
04:22 59.1 °F 54.0 °F 29.94 in North 3.0 mph 5.0 mph 83% 0.00 in
04:27 59.1 °F 54.0 °F 29.94 in NE 3.0 mph 3.0 mph 83% 0.00 in
04:32 58.8 °F 53.7 °F 29.94 in NNE 3.0 mph 3.0 mph 83% 0.00 in
04:37 58.6 °F 53.8 °F 29.94 in North 2.0 mph 3.0 mph 84% 0.00 in
04:42 58.5 °F 53.7 °F 29.94 in ENE 2.0 mph 4.0 mph 84% 0.00 in
04:47 58.4 °F 53.6 °F 29.95 in North 3.0 mph 5.0 mph 84% 0.00 in
04:52 58.4 °F 53.6 °F 29.94 in NE 3.0 mph 4.0 mph 84% 0.00 in
04:57 58.2 °F 53.4 °F 29.94 in NE 2.0 mph 5.0 mph 84% 0.00 in
05:02 58.2 °F 53.7 °F 29.94 in North 4.0 mph 5.0 mph 85% 0.00 in
05:07 58.0 °F 53.5 °F 29.94 in NE 1.0 mph 3.0 mph 85% 0.00 in
05:12 58.0 °F 53.5 °F 29.94 in NNE 2.0 mph 4.0 mph 85% 0.00 in
05:17 58.0 °F 53.5 °F 29.95 in North 2.0 mph 5.0 mph 85% 0.00 in
05:22 58.0 °F 53.5 °F 29.95 in NNE 3.0 mph 4.0 mph 85% 0.00 in
05:27 57.9 °F 53.4 °F 29.95 in NNE 1.0 mph 6.0 mph 85% 0.00 in
05:32 57.8 °F 53.3 °F 29.95 in NNE 3.0 mph 4.0 mph 85% 0.00 in
05:38 57.9 °F 53.4 °F 29.95 in NNE 2.0 mph 5.0 mph 85% 0.00 in
05:43 57.9 °F 53.4 °F 29.95 in NE 4.0 mph 4.0 mph 85% 0.00 in
05:48 57.9 °F 53.4 °F 29.95 in NE 2.0 mph 5.0 mph 85% 0.00 in
05:53 58.1 °F 53.6 °F 29.95 in North 2.0 mph 5.0 mph 85% 0.00 in
05:58 58.3 °F 53.8 °F 29.95 in NE 4.0 mph 5.0 mph 85% 0.00 in
06:03 58.2 °F 53.7 °F 29.95 in NNE 3.0 mph 5.0 mph 85% 0.00 in
06:08 58.1 °F 53.6 °F 29.95 in North 4.0 mph 6.0 mph 85% 0.00 in
06:13 58.2 °F 53.7 °F 29.95 in NNE 3.0 mph 5.0 mph 85% 0.00 in
06:18 58.3 °F 53.8 °F 29.95 in NNE 3.0 mph 5.0 mph 85% 0.00 in
06:23 58.4 °F 53.6 °F 29.96 in North 4.0 mph 6.0 mph 84% 0.00 in
06:28 58.5 °F 53.7 °F 29.96 in NNE 3.0 mph 5.0 mph 84% 0.00 in
06:33 58.4 °F 53.6 °F 29.96 in NNE 3.0 mph 4.0 mph 84% 0.00 in
06:38 58.3 °F 53.5 °F 29.96 in NE 4.0 mph 5.0 mph 84% 0.00 in
06:43 58.3 °F 53.8 °F 29.97 in NE 3.0 mph 5.0 mph 85% 0.00 in
06:48 58.2 °F 53.7 °F 29.97 in NE 3.0 mph 5.0 mph 85% 0.00 in
06:53 58.2 °F 53.7 °F 29.97 in NE 3.0 mph 5.0 mph 85% 0.00 in
06:58 58.2 °F 53.7 °F 29.97 in NNE 2.0 mph 5.0 mph 85% 0.00 in
07:03 58.4 °F 53.9 °F 29.97 in NNE 3.0 mph 5.0 mph 85% 0.00 in
07:09 58.8 °F 54.0 °F 29.97 in NNE 6.0 mph 6.0 mph 84% 0.00 in
07:14 59.1 °F 54.3 °F 29.97 in NE 4.0 mph 5.0 mph 84% 0.00 in
07:19 59.4 °F 54.2 °F 29.97 in NE 4.0 mph 7.0 mph 83% 0.00 in
07:24 59.7 °F 54.5 °F 29.97 in NE 5.0 mph 5.0 mph 83% 0.00 in
07:29 59.9 °F 54.7 °F 29.97 in NE 3.0 mph 7.0 mph 83% 0.00 in
07:34 60.1 °F 54.6 °F 29.98 in NE 3.0 mph 7.0 mph 82% 0.00 in
07:39 60.3 °F 54.8 °F 29.98 in NE 6.0 mph 6.0 mph 82% 0.00 in
07:44 60.5 °F 55.0 °F 29.97 in NNE 4.0 mph 7.0 mph 82% 0.00 in
07:49 60.8 °F 55.3 °F 29.98 in NE 4.0 mph 6.0 mph 82% 0.00 in
07:54 61.1 °F 55.2 °F 29.98 in NNE 4.0 mph 9.0 mph 81% 0.00 in
07:59 61.3 °F 55.4 °F 29.98 in NE 5.0 mph 8.0 mph 81% 0.00 in
08:04 61.6 °F 55.7 °F 29.98 in NE 3.0 mph 9.0 mph 81% 0.00 in
08:09 62.0 °F 55.8 °F 29.98 in North 4.0 mph 8.0 mph 80% 0.00 in
08:14 62.3 °F 56.1 °F 29.98 in NE 5.0 mph 5.0 mph 80% 0.00 in
08:19 62.8 °F 56.5 °F 29.99 in NE 4.0 mph 8.0 mph 80% 0.00 in
08:24 63.2 °F 56.6 °F 29.99 in NE 6.0 mph 8.0 mph 79% 0.00 in
08:29 63.5 °F 56.5 °F 29.99 in ENE 3.0 mph 8.0 mph 78% 0.00 in
08:34 63.9 °F 56.9 °F 29.99 in ENE 4.0 mph 7.0 mph 78% 0.00 in
08:39 64.1 °F 56.8 °F 29.99 in ENE 2.0 mph 9.0 mph 77% 0.00 in
08:44 64.5 °F 57.1 °F 29.99 in NE 5.0 mph 8.0 mph 77% 0.00 in
08:49 64.7 °F 57.3 °F 29.99 in NE 3.0 mph 8.0 mph 77% 0.00 in
08:54 65.1 °F 57.4 °F 29.99 in NE 4.0 mph 8.0 mph 76% 0.00 in
08:59 65.6 °F 57.8 °F 29.99 in ENE 3.0 mph 6.0 mph 76% 0.00 in
09:04 66.0 °F 58.2 °F 29.99 in NE 6.0 mph 7.0 mph 76% 0.00 in
09:10 66.5 °F 58.0 °F 30.00 in East 1.0 mph 5.0 mph 74% 0.00 in
09:15 67.1 °F 58.5 °F 30.00 in NE 4.0 mph 7.0 mph 74% 0.00 in
09:20 67.4 °F 58.5 °F 30.00 in NE 5.0 mph 6.0 mph 73% 0.00 in
09:25 67.6 °F 58.7 °F 30.00 in NE 3.0 mph 6.0 mph 73% 0.00 in
09:30 67.6 °F 58.3 °F 29.99 in East 5.0 mph 10.0 mph 72% 0.00 in
09:35 67.9 °F 58.9 °F 30.00 in NE 3.0 mph 8.0 mph 73% 0.00 in
09:40 68.3 °F 58.5 °F 30.00 in East 3.0 mph 7.0 mph 71% 0.00 in
09:45 68.8 °F 59.0 °F 30.00 in East 4.0 mph 8.0 mph 71% 0.00 in
09:50 69.2 °F 59.8 °F 30.00 in NE 8.0 mph 8.0 mph 72% 0.00 in
09:55 69.0 °F 59.2 °F 30.00 in NE 5.0 mph 10.0 mph 71% 0.00 in
10:00 69.3 °F 60.3 °F 30.00 in NE 6.0 mph 6.0 mph 73% 0.00 in
10:05 69.4 °F 60.4 °F 30.00 in East 3.0 mph 7.0 mph 73% 0.00 in
10:10 69.8 °F 60.8 °F 30.00 in ENE 2.0 mph 7.0 mph 73% 0.00 in
10:15 69.8 °F 60.8 °F 29.99 in East 4.0 mph 9.0 mph 73% 0.00 in
10:20 70.1 °F 61.0 °F 29.99 in East 2.0 mph 6.0 mph 73% 0.00 in
10:25 70.7 °F 60.8 °F 30.00 in East 2.0 mph 6.0 mph 71% 0.00 in
10:30 70.5 °F 61.0 °F 30.00 in ESE 2.0 mph 6.0 mph 72% 0.00 in
10:35 70.7 °F 61.6 °F 30.00 in NE 5.0 mph 6.0 mph 73% 0.00 in
10:40 70.9 °F 62.2 °F 29.99 in NE 6.0 mph 6.0 mph 74% 0.00 in
10:45 71.1 °F 62.4 °F 29.99 in ENE 4.0 mph 6.0 mph 74% 0.00 in
10:50 71.3 °F 62.2 °F 29.99 in East 3.0 mph 7.0 mph 73% 0.00 in
10:55 71.8 °F 62.7 °F 29.99 in East 2.0 mph 5.0 mph 73% 0.00 in
11:00 72.2 °F 62.7 °F 29.99 in ESE 1.0 mph 6.0 mph 72% 0.00 in
11:06 72.4 °F 63.7 °F 29.99 in ESE 2.0 mph 5.0 mph 74% 0.00 in
11:11 72.5 °F 63.0 °F 29.99 in Calm   4.0 mph 72% 0.00 in
11:16 72.9 °F 63.0 °F 29.99 in ESE 4.0 mph 5.0 mph 71% 0.00 in
11:21 73.3 °F 63.3 °F 29.99 in NW 3.0 mph 5.0 mph 71% 0.00 in
11:26 73.4 °F 63.8 °F 29.99 in NNE 6.0 mph 7.0 mph 72% 0.00 in
11:31 73.3 °F 62.5 °F 29.99 in NE 1.0 mph 6.0 mph 69% 0.00 in
11:36 73.4 °F 63.4 °F 29.99 in NE 4.0 mph 6.0 mph 71% 0.00 in
11:41 73.7 °F 63.3 °F 29.99 in NE 6.0 mph 6.0 mph 70% 0.00 in
11:46 73.9 °F 64.3 °F 29.99 in NE 5.0 mph 7.0 mph 72% 0.00 in
11:51 74.5 °F 65.3 °F 29.99 in NW 3.0 mph 4.0 mph 73% 0.00 in
11:56 75.0 °F 64.2 °F 29.99 in NNE 2.0 mph 5.0 mph 69% 0.00 in
12:01 75.4 °F 65.3 °F 29.99 in East 3.0 mph 6.0 mph 71% 0.00 in
12:06 75.8 °F 64.5 °F 29.98 in North 4.0 mph 6.0 mph 68% 0.00 in
12:11 75.7 °F 62.2 °F 29.98 in East 2.0 mph 4.0 mph 63% 0.00 in
12:16 75.8 °F 63.6 °F 29.98 in North 5.0 mph 9.0 mph 66% 0.00 in
12:21 75.5 °F 61.6 °F 29.98 in NE 5.0 mph 8.0 mph 62% 0.00 in
12:26 75.6 °F 63.0 °F 29.98 in ESE 5.0 mph 7.0 mph 65% 0.00 in
12:31 76.1 °F 63.5 °F 29.98 in NNE 7.0 mph 8.0 mph 65% 0.00 in
12:36 76.4 °F 61.5 °F 29.98 in NE 10.0 mph 10.0 mph 60% 0.00 in
12:41 76.4 °F 62.4 °F 29.98 in North 4.0 mph 6.0 mph 62% 0.00 in
12:46 76.8 °F 62.3 °F 29.98 in NNE 5.0 mph 8.0 mph 61% 0.00 in
12:51 76.7 °F 62.2 °F 29.98 in NE 6.0 mph 8.0 mph 61% 0.00 in
12:56 75.9 °F 61.5 °F 29.98 in NNE 2.0 mph 6.0 mph 61% 0.00 in
13:01 76.6 °F 62.6 °F 29.97 in NE 6.0 mph 10.0 mph 62% 0.00 in
13:06 76.4 °F 61.5 °F 29.97 in North 4.0 mph 7.0 mph 60% 0.00 in
13:12 76.4 °F 60.5 °F 29.97 in ENE 7.0 mph 8.0 mph 58% 0.00 in
13:16 76.2 °F 61.8 °F 29.97 in East 3.0 mph 8.0 mph 61% 0.00 in
13:22 77.3 °F 62.8 °F 29.97 in North 4.0 mph 4.0 mph 61% 0.00 in
13:26 77.5 °F 61.1 °F 29.97 in ESE 4.0 mph 9.0 mph 57% 0.00 in
13:32 77.2 °F 60.3 °F 29.98 in NNE 1.0 mph 7.0 mph 56% 0.00 in
13:37 76.9 °F 60.5 °F 29.97 in NNW 3.0 mph 6.0 mph 57% 0.00 in
13:42 77.5 °F 61.1 °F 29.97 in North 4.0 mph 8.0 mph 57% 0.00 in
13:47 77.5 °F 61.1 °F 29.97 in NE 3.0 mph 6.0 mph 57% 0.00 in
13:52 77.5 °F 60.1 °F 29.97 in ESE 7.0 mph 8.0 mph 55% 0.00 in
13:57 77.8 °F 61.4 °F 29.97 in NE 4.0 mph 4.0 mph 57% 0.00 in
14:02 77.9 °F 61.0 °F 29.97 in East 7.0 mph 7.0 mph 56% 0.00 in
14:07 78.8 °F 60.8 °F 29.97 in ESE 5.0 mph 8.0 mph 54% 0.00 in
14:12 78.8 °F 59.7 °F 29.97 in ESE 4.0 mph 8.0 mph 52% 0.00 in
14:17 79.0 °F 62.0 °F 29.97 in NW 3.0 mph 8.0 mph 56% 0.00 in
14:22 79.2 °F 59.5 °F 29.97 in ESE 1.0 mph 5.0 mph 51% 0.00 in
14:27 79.4 °F 60.8 °F 29.97 in Calm   3.0 mph 53% 0.00 in
14:33 79.5 °F 58.7 °F 29.97 in East 1.0 mph 5.0 mph 49% 0.00 in
14:38 79.1 °F 58.3 °F 29.97 in Calm   7.0 mph 49% 0.00 in
14:43 79.6 °F 59.9 °F 29.97 in East 5.0 mph 5.0 mph 51% 0.00 in
14:48 78.6 °F 59.0 °F 29.97 in NNE 3.0 mph 7.0 mph 51% 0.00 in
14:53 77.6 °F 58.1 °F 29.97 in NNE 1.0 mph 6.0 mph 51% 0.00 in
14:58 77.4 °F 60.0 °F 29.97 in NNE 3.0 mph 6.0 mph 55% 0.00 in
15:03 78.1 °F 58.5 °F 29.97 in NE 1.0 mph 6.0 mph 51% 0.00 in
15:08 79.0 °F 59.3 °F 29.96 in NNW 7.0 mph 9.0 mph 51% 0.00 in
15:13 79.2 °F 57.8 °F 29.96 in North 2.0 mph 9.0 mph 48% 0.00 in
15:18 79.6 °F 59.3 °F 29.96 in North 5.0 mph 9.0 mph 50% 0.00 in
15:23 79.7 °F 60.0 °F 29.96 in North 7.0 mph 7.0 mph 51% 0.00 in
15:28 79.9 °F 59.0 °F 29.96 in NNW 1.0 mph 5.0 mph 49% 0.00 in
15:33 79.9 °F 59.6 °F 29.96 in NNE 5.0 mph 8.0 mph 50% 0.00 in
15:38 78.7 °F 58.0 °F 29.96 in North 6.0 mph 7.0 mph 49% 0.00 in
15:43 78.8 °F 58.6 °F 29.96 in NNW 3.0 mph 8.0 mph 50% 0.00 in
15:48 79.2 °F 59.5 °F 29.96 in NNW 3.0 mph 7.0 mph 51% 0.00 in
15:53 79.9 °F 60.2 °F 29.96 in NNW 10.0 mph 10.0 mph 51% 0.00 in
15:58 80.0 °F 59.7 °F 29.96 in West 1.0 mph 7.0 mph 50% 0.00 in
16:03 80.5 °F 60.2 °F 29.96 in North 7.0 mph 12.0 mph 50% 0.00 in
16:08 80.4 °F 58.3 °F 29.96 in NE 3.0 mph 7.0 mph 47% 0.00 in
16:13 80.4 °F 58.9 °F 29.95 in NE 9.0 mph 9.0 mph 48% 0.00 in
16:18 80.2 °F 61.0 °F 29.95 in NE 5.0 mph 8.0 mph 52% 0.00 in
16:23 80.1 °F 59.2 °F 29.95 in NNW 5.0 mph 8.0 mph 49% 0.00 in
16:28 80.2 °F 59.9 °F 29.95 in NE 9.0 mph 9.0 mph 50% 0.00 in
16:33 80.2 °F 60.5 °F 29.94 in NNW 4.0 mph 7.0 mph 51% 0.00 in
16:38 80.2 °F 59.3 °F 29.95 in NNW 6.0 mph 7.0 mph 49% 0.00 in
16:43 80.2 °F 57.0 °F 29.94 in NE 3.0 mph 7.0 mph 45% 0.00 in
16:49 80.1 °F 58.1 °F 29.94 in North 6.0 mph 7.0 mph 47% 0.00 in
16:54 80.1 °F 59.8 °F 29.94 in NW 4.0 mph 7.0 mph 50% 0.00 in
16:59 80.3 °F 61.1 °F 29.94 in NW 3.0 mph 4.0 mph 52% 0.00 in
17:04 80.4 °F 58.9 °F 29.93 in NW 6.0 mph 6.0 mph 48% 0.00 in
17:09 80.7 °F 59.8 °F 29.94 in NNW 3.0 mph 7.0 mph 49% 0.00 in
17:14 80.5 °F 57.2 °F 29.94 in NNW 6.0 mph 8.0 mph 45% 0.00 in
17:19 80.5 °F 60.2 °F 29.94 in NW 7.0 mph 8.0 mph 50% 0.00 in
17:24 80.8 °F 60.4 °F 29.94 in NE 2.0 mph 6.0 mph 50% 0.00 in
17:29 80.6 °F 57.3 °F 29.93 in NNE 3.0 mph 9.0 mph 45% 0.00 in
17:34 80.4 °F 57.8 °F 29.93 in NE 2.0 mph 5.0 mph 46% 0.00 in
17:39 80.3 °F 57.0 °F 29.93 in NNE 6.0 mph 11.0 mph 45% 0.00 in
17:44 80.3 °F 57.7 °F 29.93 in NE 2.0 mph 7.0 mph 46% 0.00 in
17:49 80.4 °F 56.5 °F 29.93 in NE 3.0 mph 5.0 mph 44% 0.00 in
17:54 80.7 °F 58.6 °F 29.93 in NW 5.0 mph 8.0 mph 47% 0.00 in
17:59 80.8 °F 57.5 °F 29.93 in NW 3.0 mph 10.0 mph 45% 0.00 in
18:04 81.0 °F 59.5 °F 29.93 in NNE 9.0 mph 9.0 mph 48% 0.00 in
18:09 81.0 °F 58.9 °F 29.93 in North 6.0 mph 6.0 mph 47% 0.00 in
18:14 80.8 °F 59.9 °F 29.93 in NE 4.0 mph 7.0 mph 49% 0.00 in
18:19 80.2 °F 58.2 °F 29.93 in NNE 4.0 mph 9.0 mph 47% 0.00 in
18:24 79.7 °F 58.3 °F 29.93 in NE 5.0 mph 9.0 mph 48% 0.00 in
18:29 79.7 °F 58.3 °F 29.93 in NNE 5.0 mph 7.0 mph 48% 0.00 in
18:34 79.7 °F 58.9 °F 29.93 in NNW 7.0 mph 7.0 mph 49% 0.00 in
18:39 79.6 °F 59.9 °F 29.93 in NNE 4.0 mph 7.0 mph 51% 0.00 in
18:44 79.7 °F 58.9 °F 29.93 in NNE 7.0 mph 8.0 mph 49% 0.00 in
18:49 79.7 °F 58.3 °F 29.93 in NE 4.0 mph 7.0 mph 48% 0.00 in
18:54 79.4 °F 58.0 °F 29.93 in NNE 6.0 mph 10.0 mph 48% 0.00 in
18:59 79.1 °F 58.9 °F 29.93 in North 6.0 mph 8.0 mph 50% 0.00 in
19:04 79.0 °F 58.8 °F 29.93 in NNW 3.0 mph 8.0 mph 50% 0.00 in
19:09 78.9 °F 58.1 °F 29.93 in North 4.0 mph 7.0 mph 49% 0.00 in
19:14 78.8 °F 59.7 °F 29.94 in North 5.0 mph 8.0 mph 52% 0.00 in
19:19 78.6 °F 59.5 °F 29.94 in NW 3.0 mph 5.0 mph 52% 0.00 in
19:24 78.5 °F 59.4 °F 29.94 in NNE 5.0 mph 8.0 mph 52% 0.00 in
19:29 78.3 °F 58.7 °F 29.94 in NNW 5.0 mph 8.0 mph 51% 0.00 in
19:34 78.2 °F 59.2 °F 29.94 in NNW 4.0 mph 5.0 mph 52% 0.00 in
19:39 78.1 °F 58.5 °F 29.94 in NNW 6.0 mph 7.0 mph 51% 0.00 in
19:44 77.8 °F 58.2 °F 29.94 in NNE 4.0 mph 8.0 mph 51% 0.00 in
19:49 77.5 °F 58.5 °F 29.94 in North 3.0 mph 6.0 mph 52% 0.00 in
19:54 77.1 °F 58.1 °F 29.94 in North 2.0 mph 6.0 mph 52% 0.00 in
19:59 76.7 °F 58.3 °F 29.95 in NNE 4.0 mph 7.0 mph 53% 0.00 in
20:04 76.1 °F 58.3 °F 29.95 in NNE 4.0 mph 10.0 mph 54% 0.00 in
20:09 75.4 °F 58.1 °F 29.95 in NNE 7.0 mph 12.0 mph 55% 0.00 in
20:14 74.7 °F 58.0 °F 29.95 in NNE 3.0 mph 8.0 mph 56% 0.00 in
20:20 74.2 °F 58.0 °F 29.95 in NNE 3.0 mph 8.0 mph 57% 0.00 in
20:25 73.7 °F 58.0 °F 29.95 in NNE 2.0 mph 7.0 mph 58% 0.00 in
20:30 73.3 °F 57.7 °F 29.95 in NNW 2.0 mph 5.0 mph 58% 0.00 in
20:35 72.9 °F 57.8 °F 29.95 in NNW 4.0 mph 6.0 mph 59% 0.00 in
20:40 72.5 °F 57.8 °F 29.95 in NNW 5.0 mph 6.0 mph 60% 0.00 in
20:45 72.2 °F 57.1 °F 29.95 in NNE 6.0 mph 8.0 mph 59% 0.00 in
20:50 72.0 °F 57.4 °F 29.95 in North 2.0 mph 8.0 mph 60% 0.00 in
20:55 71.7 °F 57.5 °F 29.95 in North 2.0 mph 7.0 mph 61% 0.00 in
21:00 71.3 °F 57.6 °F 29.95 in NE 4.0 mph 5.0 mph 62% 0.00 in
21:05 70.8 °F 57.6 °F 29.95 in North 1.0 mph 3.0 mph 63% 0.00 in
21:10 70.4 °F 57.7 °F 29.95 in North 1.0 mph 4.0 mph 64% 0.00 in
21:15 70.1 °F 57.4 °F 29.95 in North 1.0 mph 2.0 mph 64% 0.00 in
21:20 69.7 °F 57.4 °F 29.95 in NNW 1.0 mph 2.0 mph 65% 0.00 in
21:25 69.4 °F 57.6 °F 29.95 in North 2.0 mph 3.0 mph 66% 0.00 in
21:30 69.2 °F 57.8 °F 29.95 in North 1.0 mph 3.0 mph 67% 0.00 in
21:35 69.0 °F 57.6 °F 29.95 in NNE 1.0 mph 2.0 mph 67% 0.00 in
21:40 68.7 °F 57.7 °F 29.95 in Calm   1.0 mph 68% 0.00 in
21:45 68.5 °F 57.9 °F 29.96 in North 1.0 mph 2.0 mph 69% 0.00 in
21:50 68.3 °F 57.8 °F 29.96 in North 1.0 mph 2.0 mph 69% 0.00 in
21:55 68.2 °F 57.7 °F 29.96 in North 1.0 mph 2.0 mph 69% 0.00 in
22:00 68.0 °F 57.9 °F 29.96 in Calm   1.0 mph 70% 0.00 in
22:05 67.8 °F 58.1 °F 29.96 in NNE 1.0 mph 2.0 mph 71% 0.00 in
22:10 67.7 °F 58.0 °F 29.96 in North 1.0 mph 2.0 mph 71% 0.00 in
22:15 67.5 °F 58.2 °F 29.96 in North 1.0 mph 2.0 mph 72% 0.00 in
22:20 67.3 °F 58.0 °F 29.97 in North 2.0 mph 2.0 mph 72% 0.00 in
22:25 67.2 °F 57.9 °F 29.97 in Calm   3.0 mph 72% 0.00 in
22:30 67.1 °F 58.2 °F 29.97 in Calm   1.0 mph 73% 0.00 in
22:35 67.0 °F 58.1 °F 29.97 in Calm   2.0 mph 73% 0.00 in
22:40 67.1 °F 58.2 °F 29.97 in North 2.0 mph 3.0 mph 73% 0.00 in
22:45 67.0 °F 58.5 °F 29.97 in North 2.0 mph 3.0 mph 74% 0.00 in
22:50 66.8 °F 58.3 °F 29.97 in NNW 2.0 mph 2.0 mph 74% 0.00 in
22:55 66.7 °F 58.2 °F 29.97 in NE 2.0 mph 2.0 mph 74% 0.00 in
23:00 66.7 °F 58.2 °F 29.97 in NNE 2.0 mph 3.0 mph 74% 0.00 in
23:05 66.6 °F 58.4 °F 29.97 in North 1.0 mph 3.0 mph 75% 0.00 in
23:10 66.6 °F 58.4 °F 29.97 in North 2.0 mph 3.0 mph 75% 0.00 in
23:15 66.4 °F 58.2 °F 29.97 in North 1.0 mph 2.0 mph 75% 0.00 in
23:20 66.3 °F 58.2 °F 29.97 in North 2.0 mph 4.0 mph 75% 0.00 in
23:25 66.3 °F 58.2 °F 29.97 in NNE 2.0 mph 4.0 mph 75% 0.00 in
23:30 66.3 °F 58.2 °F 29.97 in NNE 1.0 mph 2.0 mph 75% 0.00 in
23:36 66.3 °F 58.2 °F 29.97 in NNE 1.0 mph 3.0 mph 75% 0.00 in
23:41 66.3 °F 58.2 °F 29.97 in North 1.0 mph 2.0 mph 75% 0.00 in
23:46 66.3 °F 58.2 °F 29.97 in NNE 2.0 mph 3.0 mph 75% 0.00 in
23:51 66.4 °F 58.2 °F 29.97 in NNE 2.0 mph 3.0 mph 75% 0.00 in
23:56 66.4 °F 57.9 °F 29.97 in NNE 1.0 mph 5.0 mph 74% 0.00 in
Compliments of Weather Underground